Flag for Austria Weather past 2 weeks in Leoben, Styria, Austria

Now
46 °F

Passing clouds.


Feels Like: 45 °F
Forecast: 40 / 57 °F
Wind: 3 mph from North

Location: Zeltweg

Current Time: Sep 23, 2014 at 12:34:14 AM

Latest Report: Sep 22, 2014 at 10:50 PM


Visibility: 6 mi

Pressure: 29.95 "Hg

Humidity: 76%

Dew point: 39 °F

Location of LeobenLocation

Historic Weather in Leoben — Graph

°F

Leoben temperature yesterday

Maximum temperature yesterday: 61 °F (at 2:20 PM)
Minimum temperature yesterday: 46 °F (at 10:50 PM)
Average temperature yesterday: 55 °F

Past Weeks' High & Low Weather Summary

 TemperatureHumidityPressure
High77 °F (Sep 8, 4:20 PM)100% (Sep 8, 4:50 AM)30.12 "Hg (Sep 8, 4:50 AM)
Low45 °F (Sep 18, 6:50 AM)41% (Sep 8, 3:50 PM)29.89 "Hg (Sep 12, 4:50 AM)
Average59 °F80%30.03 "Hg
* Reported Sep 7 10:50 PM — Sep 22 10:50 PM, Leoben, Weather by CustomWeather, © 2014

Note: Actual official high and low records may vary slightly from our data, if they occured in-between our weather recording intervals... More about our weather records

Advertising

Leoben weather history for previous 24 hours

 ConditionsComfort  
Time TempWeatherWind HumidityBarometerVisibility
10:50 PM
Sep 22
46 °FPassing clouds.3 mph76%29.95 "Hg6 mi
9:50 PM48 °FPassing clouds.6 mph66%29.95 "Hg6 mi
8:50 PM48 °FPassing clouds.15 mph66%29.95 "Hg6 mi
7:50 PM52 °FScattered clouds.5 mph54%29.92 "Hg9 mi
6:50 PM54 °FScattered clouds.12 mph51%29.92 "Hg12 mi
5:50 PM57 °FPartly sunny.6 mph41%29.92 "Hg12 mi
4:50 PM59 °FPartly sunny.9 mph42%29.92 "Hg12 mi
4:20 PM57 °FPartly sunny.9 mph41%29.92 "Hg12 mi
3:50 PM57 °FScattered clouds.9 mph44%29.92 "Hg19 mi
3:20 PM57 °FPartly sunny.15 mph44%29.92 "Hg19 mi
2:50 PM59 °FPartly sunny.17 mph45%29.92 "Hg19 mi
2:20 PM61 °FPartly sunny.13 mph42%29.92 "Hg19 mi
1:50 PM59 °FPartly sunny.14 mph45%29.92 "Hg19 mi
1:20 PM59 °FPartly sunny.16 mph45%29.92 "Hg19 mi
12:50 PM57 °FPartly sunny.17 mph55%29.92 "Hg19 mi
12:20 PM59 °FPartly sunny.17 mph55%29.92 "Hg19 mi
11:50 AM59 °FPartly sunny.16 mph48%29.92 "Hg19 mi
11:20 AM59 °FPartly sunny.6 mph55%29.95 "Hg19 mi
10:50 AM57 °FScattered clouds.7 mph67%29.92 "Hg19 mi
10:20 AM57 °FScattered clouds.5 mph72%29.92 "Hg19 mi
9:50 AM55 °FScattered clouds.5 mph82%29.92 "Hg12 mi
9:20 AM54 °FBroken clouds.1 mph94%29.92 "Hg12 mi
8:50 AM54 °FBroken clouds.2 mph88%29.92 "Hg12 mi
8:20 AM54 °FPartly sunny.2 mph94%29.92 "Hg12 mi
7:50 AM52 °FPartly sunny.3 mph100%29.92 "Hg12 mi
7:20 AM54 °FPassing clouds.2 mph100%29.92 "Hg12 mi
6:50 AM54 °FPassing clouds.2 mph100%29.92 "Hg12 mi
5:50 AM54 °FMostly cloudy.1 mph94%29.89 "Hg9 mi
4:50 AM54 °FPartly cloudy.3 mph94%29.89 "Hg9 mi
Weather by CustomWeather, © 2014

See weather overviewHow to use our weather pages